AirNav   TITAN Aviation Fuels
 
 959 users online  

3NA0 Erickson Airport
Clifford, North Dakota, USA

GOING TO CLIFFORD?


FAA INFORMATION EFFECTIVE 03 NOVEMBER 2022

Location

FAA Identifier: 3NA0
Lat/Long: 47-24-59.9540N 097-30-41.3250W
47-24.999233N 097-30.688750W
47.4166539,-97.5114792
(estimated)
Elevation: 1095 ft. / 334 m (estimated)
Variation: 07E (1985)
From city: 6 miles NW of CLIFFORD, ND
Time zone: UTC -6 (UTC -5 during Daylight Saving Time)
Zip code: 58274

Airport Operations

Airport use: Private use. Permission required prior to landing
Activation date: 11/1984
Control tower: no
ARTCC: MINNEAPOLIS CENTER
FSS: GRAND FORKS FLIGHT SERVICE STATION
Attendance: UNATNDD
Wind indicator: yes
Segmented circle: no

Nearby radio navigation aids

VOR radial/distance  VOR name  Freq  Var
GFKr193/34.9GRAND FORKS VOR/DME114.3009E

Airport Services

Runway Information

Runway 8/26

Dimensions: 2600 x 50 ft. / 792 x 15 m
Surface: turf
RUNWAY 8  RUNWAY 26
Traffic pattern: leftleft
Obstructions: road, 50 ft. from runwaynone

Airport Ownership and Management from official FAA records

Ownership: Privately-owned
Owner: LAUREN A. ERICKSON
42 142ND AVE NE
PORTLAND, ND 58274
Phone 701-361-1770
Manager: LAUREN A. ERICKSON
42 142ND AVE NE
PORTLAND, ND 58274
Phone 701-361-1770

Airport Operational Statistics

Aircraft based on the field: 1
Single engine airplanes: 1
    

Additional Remarks

FOR CD CTC MINNEAPOLIS ARTCC AT 651-463-5588.

Instrument Procedures

There are no published instrument procedures at 3NA0.

Some nearby airports with instrument procedures:

3H4 - Hillsboro Municipal Airport (19 nm E)
4V4 - Northwood Municipal Airport-Vince Field (19 nm N)
S32 - Cooperstown Municipal Airport (24 nm W)
KRDR - Grand Forks Air Force Base (33 nm N)
KGFK - Grand Forks International Airport (35 nm NE)
 
Loc | Ops | Rwys | IFR | FBO | Links
Com | Nav | Svcs | Stats | Notes

Bismarck Aero Center
AirBoss

 
Area around 3NA0 (Erickson Airport)
 
Road maps at: MapQuest Bing Google
 
Aerial photo
No photo
 
Sectional chart

 
Airport distance calculator
Flying to Erickson Airport? Find the distance to fly.

From to 3NA0

Sunrise and sunset
Times for 26-Nov-2022
 Local
(UTC-6)
 Zulu
(UTC)
Morning civil twilight07:1713:17
Sunrise07:5113:51
Sunset16:4422:44
Evening civil twilight17:1823:18

Current date and time
Zulu (UTC)  26-Nov-2022 15:31:46
Local (UTC-6)  26-Nov-2022 09:31:46
 
METAR
KS32 
24nm W 
261515Z AUTO 32014G20KT 10SM CLR 03/03 A2971 RMK AO2 TSNO
KRDR 
33nm N 
261455Z AUTO 33009KT 10SM SCT210 03/M01 A2966 RMK AO2 SLP057 T00271006 53021 $
KGFK 
35nm N 
261453Z 32010KT 10SM BKN210 03/M01 A2967 RMK AO2 SLP057 T00281006 53018
KBAC 
35nm SW 
261515Z AUTO 32016G22KT 10SM -SN CLR 03/01 A2971 RMK AO2
KFAR 
41nm SE 
261453Z 24006KT 10SM CLR 01/M02 A2968 RMK AO2 SLP062 T00061022 53015
KCKN 
45nm NE 
261515Z 32006KT 10SM M01/M03 A2968 RMK AO2
TAF
KGFK 
35nm N 
261124Z 2612/2712 28006KT P6SM BKN230 FM261500 32011KT P6SM BKN210 FM261700 32012G20KT P6SM BKN190 FM262300 30009KT P6SM BKN230
KFAR 
41nm SE 
261124Z 2612/2712 21008KT P6SM SCT250 FM261500 30008KT P6SM SCT250 FM261800 33012G20KT P6SM BKN240 FM270200 32009KT P6SM BKN220
NOTAMs
Click for the latest NOTAMs
NOTAMs are issued by the DoD/FAA and will open in a separate window not controlled by AirNav.

 

 
 

Would you like to see your business listed on this page?

 If your business provides an interesting product or service to pilots, flight crews, aircraft, or users of the Erickson Airport, you should consider listing it here.  To start the listing process, click on the button below
 
Add a business
 

Other Pages about Erickson Airport

Update a link
 
Copyright © AirNav, LLC. All rights reserved. Privacy Policy  Contact